Precipitable_Water
1.00 0.95 0.96 0.97 1.01 1.02 1.04 1.04 1.02 1.00 0.94 0.86 0.76 0.69 0.64 0.63 0.66 0.70 0.71 0.72 0.72 0.71 0.73 0.72 0.73 0.74 0.74 0.74 0.76 0.77 0.78 0.80 0.83 0.84 0.87 0.87 0.89 0.87 0.86 0.83 0.79 0.77 0.73 0.68 0.65 0.63 0.59 0.57 0.56 0.54 0.55 0.52 0.51 0.49 0.47 0.47 0.50 0.50 0.49 0.49 0.49 0.51 0.49 0.46 0.44 0.45 0.54 0.61 0.59 0.58 0.61 0.62 0.57 0.61 0.61 0.64 0.64 0.64 0.62 0.63 0.62 0.60 0.57 0.56 0.59
1.04 1.00 0.98 0.99 0.98 1.01 1.03 0.99 0.96 0.96 0.94 0.88 0.78 0.71 0.66 0.66 0.68 0.69 0.67 0.70 0.71 0.69 0.72 0.75 0.77 0.79 0.80 0.80 0.80 0.82 0.84 0.85 0.88 0.90 0.89 0.91 0.92 0.95 0.94 0.91 0.89 0.87 0.85 0.79 0.76 0.73 0.70 0.67 0.63 0.63 0.64 0.60 0.57 0.53 0.52 0.52 0.51 0.53 0.56 0.58 0.60 0.61 0.66 0.63 0.61 0.58 0.54 0.61 0.61 0.64 0.64 0.66 0.58 0.63 0.64 0.64 0.65 0.65 0.62 0.62 0.62 0.60 0.58 0.57 0.53
1.14 1.10 1.06 1.02 0.98 0.96 0.97 0.97 0.95 0.94 0.94 0.91 0.82 0.73 0.67 0.69 0.70 0.68 0.67 0.69 0.71 0.72 0.75 0.78 0.82 0.83 0.84 0.84 0.85 0.87 0.90 0.93 0.95 0.96 0.96 0.96 0.95 0.97 0.98 0.97 0.95 0.93 0.91 0.90 0.86 0.85 0.82 0.80 0.78 0.76 0.73 0.70 0.68 0.64 0.61 0.58 0.55 0.55 0.59 0.64 0.65 0.67 0.69 0.69 0.66 0.63 0.62 0.64 0.68 0.65 0.67 0.69 0.67 0.63 0.65 0.67 0.67 0.66 0.61 0.62 0.60 0.59 0.58 0.57 0.54
1.03 1.03 1.01 1.00 0.99 0.97 0.95 0.97 0.96 0.97 0.96 0.95 0.86 0.77 0.69 0.68 0.67 0.66 0.69 0.71 0.72 0.77 0.82 0.84 0.87 0.89 0.88 0.89 0.92 0.94 0.95 0.97 0.97 0.98 0.98 0.98 0.98 0.99 1.00 1.01 1.00 0.98 0.96 0.95 0.94 0.93 0.92 0.90 0.90 0.89 0.86 0.82 0.79 0.74 0.70 0.67 0.64 0.63 0.67 0.70 0.72 0.73 0.75 0.75 0.74 0.70 0.69 0.65 0.69 0.67 0.71 0.71 0.69 0.67 0.67 0.66 0.66 0.65 0.63 0.63 0.62 0.59 0.58 0.57 0.55
0.97 0.97 0.97 0.96 0.96 0.97 0.97 0.98 0.98 0.99 1.00 0.99 0.90 0.83 0.77 0.70 0.67 0.67 0.71 0.74 0.79 0.83 0.85 0.87 0.88 0.89 0.91 0.91 0.92 0.93 0.95 0.96 0.95 0.95 0.98 0.99 1.00 1.00 1.01 1.02 1.02 1.02 1.01 0.99 0.98 0.99 0.98 0.96 0.96 0.96 0.93 0.89 0.88 0.84 0.80 0.76 0.76 0.75 0.77 0.79 0.80 0.82 0.82 0.81 0.81 0.80 0.78 0.73 0.73 0.74 0.75 0.73 0.73 0.74 0.70 0.68 0.67 0.65 0.65 0.64 0.62 0.62 0.62 0.61 0.58
0.96 0.95 0.95 0.94 0.95 0.97 0.99 1.00 0.99 1.00 1.00 0.99 0.92 0.88 0.86 0.78 0.70 0.72 0.75 0.77 0.84 0.86 0.87 0.89 0.87 0.88 0.89 0.90 0.93 0.96 0.95 0.94 0.94 0.95 0.96 0.98 1.00 1.01 1.01 1.01 1.02 1.01 1.01 1.01 1.02 1.02 1.00 1.00 0.99 0.98 0.96 0.95 0.94 0.92 0.90 0.86 0.82 0.82 0.80 0.80 0.79 0.83 0.83 0.83 0.83 0.83 0.81 0.78 0.76 0.74 0.76 0.74 0.73 0.74 0.71 0.69 0.67 0.65 0.65 0.64 0.62 0.61 0.59 0.55 0.53
1.01 1.00 1.01 0.99 0.98 0.99 1.00 1.00 1.02 1.02 1.02 1.00 0.96 0.91 0.91 0.89 0.80 0.73 0.77 0.82 0.84 0.85 0.88 0.90 0.90 0.89 0.90 0.92 0.94 0.96 0.96 0.94 0.93 0.95 0.99 1.02 1.03 1.03 1.02 1.01 1.01 1.02 1.02 1.02 1.04 1.05 1.03 1.02 1.02 1.02 1.01 0.99 0.98 0.98 0.97 0.94 0.91 0.89 0.87 0.87 0.85 0.86 0.86 0.85 0.83 0.82 0.80 0.77 0.77 0.77 0.74 0.74 0.72 0.68 0.67 0.70 0.67 0.61 0.53 0.51 0.52 0.56 0.55 0.50 0.45
0.95 0.94 0.94 0.94 0.95 0.98 1.01 1.03 1.04 1.04 1.02 1.01 0.97 0.94 0.95 0.92 0.83 0.79 0.79 0.82 0.85 0.87 0.90 0.92 0.95 0.92 0.95 0.95 0.97 0.97 0.95 0.92 0.93 0.96 1.00 1.03 1.04 1.03 1.04 1.03 1.03 1.03 1.02 1.01 1.02 1.02 1.03 1.03 1.03 1.04 1.05 1.05 1.03 1.03 1.02 0.97 0.97 0.93 0.92 0.91 0.89 0.87 0.87 0.86 0.85 0.82 0.80 0.79 0.76 0.74 0.73 0.71 0.69 0.68 0.67 0.65 0.60 0.59 0.58 0.53 0.48 0.47 0.45 0.43 0.41
0.93 0.94 0.95 0.95 0.96 0.97 0.99 1.01 1.03 1.05 1.02 0.98 0.96 0.93 0.92 0.93 0.92 0.87 0.86 0.89 0.93 0.98 0.99 0.98 0.97 0.94 0.97 0.98 0.97 0.96 0.93 0.93 0.96 0.99 1.00 1.00 1.01 1.01 1.01 1.01 0.99 0.99 1.01 1.02 1.03 1.03 1.04 1.05 1.07 1.08 1.09 1.08 1.05 1.04 1.04 1.00 0.96 0.93 0.94 0.94 0.91 0.90 0.88 0.86 0.84 0.82 0.80 0.80 0.78 0.76 0.72 0.69 0.66 0.63 0.62 0.60 0.57 0.54 0.55 0.53 0.48 0.45 0.41 0.38 0.39
0.88 0.90 0.90 0.92 0.94 0.96 0.98 0.99 1.01 1.02 1.00 0.98 0.96 0.95 0.95 0.96 0.96 0.94 0.96 0.97 0.97 1.02 1.03 1.02 1.00 0.99 0.99 1.00 1.00 0.98 0.97 0.98 0.96 0.95 0.94 0.95 0.98 0.97 0.97 0.97 0.98 0.98 0.97 0.96 0.97 0.97 0.98 0.99 1.01 1.02 1.02 1.03 1.02 0.99 0.98 0.97 0.95 0.98 1.00 0.95 0.95 0.91 0.88 0.86 0.83 0.82 0.82 0.80 0.77 0.73 0.69 0.66 0.64 0.64 0.61 0.61 0.60 0.58 0.53 0.49 0.42 0.39 0.37 0.36 0.35
0.85 0.86 0.86 0.90 0.93 0.95 0.95 0.97 0.99 0.98 0.99 0.99 1.00 0.98 0.96 0.96 0.97 0.98 0.98 1.01 1.00 1.07 1.06 1.04 1.02 1.02 1.01 1.01 0.98 0.97 0.97 0.97 0.97 0.96 0.93 0.90 0.91 0.94 0.92 0.92 0.91 0.90 0.90 0.89 0.87 0.88 0.91 0.92 0.92 0.93 0.94 0.95 0.95 0.96 0.97 0.97 0.97 0.95 0.91 0.91 0.95 0.95 0.85 0.85 0.85 0.85 0.81 0.75 0.72 0.70 0.66 0.64 0.65 0.65 0.62 0.60 0.58 0.53 0.48 0.45 0.39 0.36 0.34 0.30 0.27
0.81 0.81 0.84 0.86 0.88 0.91 0.93 0.95 0.95 0.97 0.99 0.99 1.00 1.01 1.01 0.98 0.94 0.92 0.94 0.94 0.97 1.07 1.05 1.04 1.05 1.04 1.03 1.02 1.02 1.00 0.98 0.97 0.95 0.92 0.88 0.85 0.81 0.81 0.80 0.77 0.76 0.75 0.74 0.70 0.69 0.68 0.70 0.77 0.84 0.87 0.84 0.84 0.85 0.85 0.86 0.88 0.90 0.90 0.87 0.85 0.83 0.82 0.81 0.79 0.75 0.73 0.74 0.71 0.69 0.67 0.65 0.62 0.61 0.60 0.58 0.56 0.52 0.47 0.45 0.41 0.37 0.35 0.32 0.29 0.28
0.76 0.78 0.81 0.83 0.86 0.90 0.92 0.91 0.92 0.92 0.94 0.95 0.97 0.97 0.95 0.95 0.95 0.93 0.94 1.00 1.04 1.00 1.04 1.06 1.05 1.06 1.05 1.01 0.96 0.94 0.92 0.91 0.88 0.85 0.81 0.78 0.75 0.72 0.71 0.70 0.66 0.67 0.68 0.65 0.64 0.64 0.64 0.65 0.70 0.76 0.75 0.71 0.71 0.74 0.75 0.72 0.73 0.73 0.72 0.71 0.70 0.68 0.66 0.67 0.71 0.73 0.73 0.69 0.66 0.64 0.64 0.62 0.59 0.57 0.57 0.52 0.48 0.42 0.40 0.36 0.34 0.33 0.32 0.29 0.29
0.67 0.67 0.71 0.76 0.80 0.83 0.86 0.89 0.90 0.91 0.92 0.91 0.90 0.89 0.89 0.91 0.94 0.97 0.98 1.00 1.00 1.01 1.02 1.02 0.98 0.93 0.88 0.84 0.82 0.83 0.77 0.74 0.74 0.75 0.73 0.72 0.70 0.67 0.68 0.67 0.66 0.63 0.58 0.59 0.58 0.59 0.58 0.57 0.59 0.64 0.68 0.62 0.62 0.63 0.63 0.63 0.64 0.64 0.64 0.63 0.62 0.61 0.60 0.62 0.63 0.64 0.64 0.63 0.59 0.55 0.59 0.57 0.51 0.51 0.50 0.47 0.42 0.38 0.34 0.31 0.32 0.30 0.29 0.29 0.31
0.59 0.60 0.62 0.65 0.71 0.74 0.75 0.75 0.76 0.77 0.80 0.81 0.82 0.82 0.84 0.84 0.83 0.82 0.85 0.86 0.86 0.90 0.85 0.79 0.74 0.70 0.67 0.66 0.63 0.60 0.58 0.59 0.62 0.65 0.66 0.67 0.67 0.64 0.71 0.68 0.65 0.60 0.57 0.55 0.54 0.54 0.55 0.56 0.55 0.55 0.57 0.58 0.60 0.60 0.58 0.58 0.58 0.58 0.58 0.59 0.59 0.59 0.59 0.60 0.60 0.60 0.59 0.59 0.57 0.56 0.54 0.54 0.51 0.49 0.48 0.46 0.42 0.38 0.36 0.33 0.32 0.31 0.32 0.35 0.35
0.57 0.57 0.56 0.58 0.61 0.64 0.66 0.65 0.64 0.66 0.66 0.68 0.71 0.73 0.76 0.75 0.75 0.75 0.76 0.75 0.76 0.75 0.71 0.66 0.62 0.61 0.61 0.59 0.54 0.48 0.49 0.51 0.53 0.57 0.62 0.63 0.65 0.65 0.67 0.66 0.61 0.56 0.53 0.54 0.54 0.55 0.56 0.57 0.56 0.57 0.57 0.56 0.56 0.56 0.56 0.57 0.57 0.56 0.55 0.56 0.55 0.55 0.54 0.56 0.56 0.57 0.57 0.57 0.56 0.54 0.54 0.50 0.44 0.41 0.39 0.36 0.35 0.35 0.35 0.34 0.34 0.34 0.34 0.31 0.27
0.60 0.61 0.61 0.61 0.61 0.62 0.61 0.60 0.60 0.62 0.63 0.61 0.61 0.63 0.65 0.65 0.64 0.65 0.63 0.62 0.62 0.62 0.62 0.61 0.61 0.57 0.56 0.58 0.56 0.52 0.52 0.52 0.53 0.55 0.57 0.58 0.57 0.62 0.63 0.61 0.60 0.56 0.56 0.56 0.55 0.54 0.55 0.55 0.57 0.55 0.53 0.52 0.53 0.54 0.55 0.56 0.55 0.54 0.53 0.52 0.52 0.52 0.52 0.53 0.52 0.51 0.50 0.49 0.47 0.45 0.43 0.41 0.39 0.37 0.35 0.33 0.32 0.32 0.30 0.28 0.29 0.32 0.29 0.25 0.26
0.62 0.60 0.59 0.60 0.61 0.61 0.60 0.60 0.59 0.59 0.60 0.61 0.62 0.64 0.65 0.64 0.63 0.62 0.60 0.60 0.60 0.59 0.58 0.57 0.58 0.58 0.56 0.54 0.56 0.55 0.51 0.53 0.54 0.55 0.56 0.59 0.57 0.62 0.63 0.63 0.58 0.57 0.56 0.56 0.54 0.52 0.52 0.53 0.54 0.52 0.49 0.48 0.48 0.49 0.50 0.53 0.53 0.52 0.52 0.50 0.49 0.49 0.49 0.51 0.50 0.49 0.47 0.46 0.45 0.43 0.41 0.38 0.36 0.35 0.33 0.33 0.32 0.31 0.30 0.27 0.30 0.30 0.27 0.27 0.25
0.62 0.62 0.62 0.62 0.62 0.62 0.61 0.60 0.60 0.60 0.60 0.62 0.63 0.62 0.63 0.63 0.64 0.64 0.64 0.63 0.61 0.60 0.59 0.59 0.58 0.58 0.58 0.55 0.52 0.58 0.56 0.54 0.56 0.58 0.58 0.59 0.60 0.62 0.63 0.63 0.60 0.58 0.55 0.53 0.53 0.51 0.51 0.50 0.50 0.51 0.49 0.48 0.47 0.48 0.49 0.53 0.53 0.52 0.51 0.50 0.48 0.47 0.48 0.50 0.49 0.48 0.46 0.44 0.43 0.41 0.40 0.39 0.38 0.38 0.39 0.37 0.36 0.34 0.34 0.34 0.35 0.32 0.28 0.28 0.28
0.64 0.66 0.65 0.65 0.65 0.65 0.65 0.64 0.63 0.61 0.61 0.64 0.65 0.64 0.66 0.65 0.65 0.64 0.64 0.64 0.63 0.61 0.60 0.62 0.62 0.60 0.58 0.57 0.57 0.60 0.60 0.58 0.58 0.57 0.59 0.59 0.59 0.60 0.62 0.61 0.62 0.61 0.58 0.54 0.51 0.51 0.51 0.50 0.49 0.49 0.48 0.49 0.49 0.49 0.49 0.51 0.51 0.50 0.49 0.47 0.45 0.44 0.48 0.48 0.46 0.44 0.43 0.41 0.40 0.40 0.39 0.40 0.41 0.41 0.41 0.40 0.39 0.39 0.38 0.37 0.36 0.34 0.31 0.30 0.29
0.59 0.59 0.63 0.64 0.63 0.62 0.63 0.62 0.61 0.60 0.61 0.62 0.60 0.60 0.60 0.58 0.60 0.61 0.61 0.63 0.63 0.63 0.63 0.63 0.62 0.60 0.60 0.59 0.59 0.59 0.60 0.59 0.58 0.57 0.59 0.59 0.60 0.59 0.62 0.62 0.61 0.58 0.56 0.55 0.55 0.53 0.50 0.48 0.49 0.48 0.48 0.48 0.48 0.47 0.47 0.48 0.49 0.50 0.50 0.49 0.47 0.47 0.46 0.47 0.46 0.42 0.40 0.41 0.40 0.40 0.39 0.38 0.38 0.38 0.37 0.37 0.37 0.37 0.37 0.38 0.37 0.36 0.33 0.31 0.30
0.63 0.63 0.62 0.62 0.63 0.65 0.66 0.65 0.64 0.64 0.63 0.61 0.60 0.58 0.59 0.60 0.62 0.64 0.65 0.65 0.64 0.64 0.64 0.62 0.62 0.60 0.59 0.58 0.59 0.57 0.56 0.56 0.57 0.57 0.56 0.57 0.58 0.61 0.60 0.61 0.60 0.56 0.51 0.52 0.53 0.54 0.53 0.48 0.46 0.46 0.46 0.46 0.45 0.45 0.45 0.44 0.45 0.45 0.43 0.42 0.43 0.43 0.44 0.42 0.43 0.41 0.40 0.38 0.36 0.34 0.34 0.34 0.34 0.34 0.35 0.35 0.36 0.37 0.37 0.37 0.37 0.36 0.36 0.35 0.32
0.61 0.61 0.61 0.61 0.61 0.62 0.63 0.65 0.65 0.63 0.63 0.63 0.60 0.59 0.61 0.61 0.61 0.62 0.62 0.62 0.62 0.62 0.60 0.58 0.55 0.54 0.53 0.55 0.56 0.56 0.55 0.54 0.54 0.53 0.52 0.53 0.54 0.57 0.58 0.56 0.56 0.54 0.52 0.50 0.51 0.54 0.53 0.49 0.46 0.45 0.45 0.45 0.45 0.44 0.44 0.44 0.44 0.43 0.42 0.42 0.41 0.40 0.39 0.40 0.38 0.36 0.35 0.33 0.32 0.31 0.33 0.34 0.34 0.33 0.34 0.34 0.35 0.36 0.36 0.36 0.36 0.37 0.37 0.38 0.38
0.55 0.56 0.56 0.57 0.57 0.57 0.57 0.59 0.62 0.63 0.62 0.62 0.61 0.61 0.62 0.61 0.63 0.62 0.61 0.60 0.60 0.59 0.57 0.54 0.51 0.52 0.51 0.52 0.53 0.54 0.55 0.54 0.52 0.51 0.52 0.51 0.52 0.53 0.53 0.52 0.52 0.55 0.54 0.51 0.51 0.54 0.50 0.47 0.45 0.45 0.45 0.45 0.45 0.45 0.44 0.43 0.42 0.42 0.41 0.40 0.37 0.36 0.36 0.36 0.35 0.33 0.31 0.31 0.31 0.32 0.32 0.34 0.34 0.34 0.34 0.35 0.35 0.35 0.36 0.36 0.37 0.37 0.37 0.37 0.38
0.51 0.51 0.51 0.52 0.52 0.52 0.53 0.55 0.57 0.58 0.59 0.59 0.58 0.59 0.60 0.59 0.57 0.58 0.58 0.56 0.55 0.54 0.53 0.51 0.49 0.50 0.51 0.51 0.51 0.52 0.52 0.54 0.52 0.51 0.50 0.50 0.50 0.50 0.51 0.50 0.52 0.53 0.53 0.54 0.52 0.51 0.49 0.47 0.45 0.45 0.45 0.45 0.44 0.42 0.42 0.41 0.41 0.39 0.37 0.35 0.35 0.38 0.35 0.33 0.33 0.32 0.31 0.31 0.31 0.31 0.32 0.33 0.34 0.34 0.36 0.36 0.36 0.36 0.36 0.36 0.36 0.37 0.37 0.37 0.38
0.48 0.49 0.49 0.50 0.51 0.51 0.51 0.52 0.53 0.55 0.57 0.58 0.58 0.59 0.60 0.59 0.55 0.55 0.56 0.54 0.53 0.52 0.53 0.53 0.51 0.51 0.52 0.52 0.53 0.52 0.51 0.52 0.52 0.50 0.49 0.49 0.48 0.48 0.48 0.49 0.50 0.51 0.51 0.50 0.49 0.48 0.47 0.46 0.45 0.44 0.43 0.43 0.43 0.43 0.40 0.38 0.35 0.35 0.34 0.34 0.37 0.35 0.34 0.33 0.32 0.31 0.30 0.31 0.31 0.31 0.32 0.33 0.34 0.35 0.36 0.36 0.35 0.34 0.34 0.33 0.33 0.34 0.35 0.35 0.35
0.44 0.45 0.46 0.48 0.49 0.50 0.50 0.50 0.51 0.53 0.55 0.56 0.57 0.58 0.59 0.60 0.57 0.54 0.54 0.53 0.53 0.52 0.51 0.52 0.51 0.49 0.48 0.50 0.53 0.55 0.51 0.50 0.50 0.49 0.48 0.47 0.47 0.47 0.47 0.47 0.48 0.48 0.47 0.46 0.46 0.45 0.45 0.44 0.43 0.43 0.43 0.42 0.41 0.39 0.35 0.34 0.34 0.35 0.36 0.36 0.35 0.34 0.33 0.32 0.31 0.31 0.31 0.30 0.31 0.31 0.32 0.33 0.35 0.34 0.34 0.34 0.33 0.34 0.34 0.33 0.33 0.33 0.35 0.35 0.35
0.39 0.39 0.40 0.42 0.44 0.46 0.47 0.49 0.47 0.46 0.49 0.54 0.54 0.54 0.56 0.59 0.58 0.55 0.54 0.53 0.51 0.51 0.50 0.50 0.50 0.49 0.48 0.49 0.53 0.54 0.52 0.50 0.50 0.49 0.48 0.49 0.48 0.48 0.48 0.48 0.48 0.49 0.47 0.47 0.46 0.46 0.46 0.44 0.43 0.42 0.40 0.38 0.37 0.37 0.36 0.35 0.33 0.32 0.32 0.33 0.34 0.34 0.33 0.33 0.33 0.34 0.33 0.33 0.32 0.33 0.33 0.33 0.32 0.33 0.33 0.33 0.33 0.34 0.35 0.35 0.34 0.34 0.36 0.36 0.35
0.36 0.35 0.36 0.37 0.37 0.39 0.41 0.44 0.45 0.46 0.48 0.52 0.53 0.53 0.54 0.57 0.57 0.57 0.60 0.60 0.57 0.54 0.53 0.52 0.51 0.50 0.49 0.48 0.51 0.51 0.51 0.49 0.52 0.52 0.51 0.51 0.49 0.48 0.48 0.48 0.49 0.50 0.48 0.48 0.48 0.47 0.45 0.43 0.41 0.40 0.38 0.36 0.33 0.33 0.33 0.32 0.31 0.32 0.33 0.33 0.33 0.34 0.34 0.33 0.32 0.32 0.33 0.32 0.31 0.31 0.30 0.31 0.32 0.33 0.33 0.32 0.33 0.34 0.36 0.36 0.37 0.36 0.37 0.38 0.36
0.33 0.33 0.33 0.34 0.35 0.35 0.35 0.35 0.37 0.41 0.44 0.46 0.49 0.52 0.52 0.55 0.58 0.59 0.63 0.63 0.61 0.59 0.56 0.55 0.58 0.55 0.51 0.53 0.52 0.48 0.47 0.50 0.51 0.49 0.49 0.48 0.48 0.48 0.49 0.48 0.49 0.49 0.49 0.48 0.46 0.43 0.41 0.39 0.38 0.36 0.34 0.32 0.32 0.31 0.31 0.31 0.30 0.30 0.31 0.31 0.32 0.33 0.32 0.32 0.33 0.33 0.32 0.31 0.31 0.31 0.31 0.31 0.31 0.31 0.32 0.32 0.33 0.35 0.36 0.36 0.36 0.38 0.37 0.38 0.38
0.30 0.30 0.30 0.30 0.31 0.34 0.35 0.34 0.34 0.36 0.38 0.40 0.44 0.47 0.50 0.49 0.51 0.53 0.55 0.58 0.58 0.57 0.56 0.55 0.53 0.52 0.48 0.49 0.55 0.48 0.47 0.46 0.47 0.46 0.46 0.45 0.45 0.45 0.45 0.46 0.47 0.47 0.46 0.45 0.43 0.41 0.39 0.37 0.36 0.35 0.33 0.33 0.31 0.31 0.31 0.30 0.29 0.30 0.31 0.31 0.32 0.32 0.31 0.32 0.32 0.32 0.32 0.32 0.32 0.32 0.31 0.31 0.31 0.31 0.31 0.32 0.33 0.34 0.36 0.38 0.38 0.39 0.39 0.40 0.40
0.28 0.28 0.30 0.32 0.33 0.32 0.31 0.32 0.33 0.35 0.36 0.38 0.38 0.37 0.39 0.42 0.47 0.49 0.51 0.52 0.54 0.55 0.55 0.55 0.53 0.52 0.51 0.51 0.51 0.47 0.46 0.46 0.46 0.46 0.46 0.45 0.45 0.45 0.45 0.46 0.46 0.46 0.45 0.44 0.40 0.38 0.38 0.36 0.35 0.34 0.33 0.32 0.32 0.31 0.31 0.31 0.31 0.31 0.31 0.30 0.31 0.32 0.31 0.31 0.32 0.33 0.32 0.32 0.31 0.31 0.31 0.31 0.31 0.32 0.32 0.33 0.34 0.34 0.35 0.37 0.38 0.39 0.41 0.42 0.43
0.29 0.30 0.31 0.31 0.32 0.31 0.30 0.30 0.32 0.32 0.33 0.35 0.36 0.37 0.35 0.34 0.34 0.39 0.44 0.47 0.49 0.50 0.50 0.50 0.51 0.52 0.53 0.52 0.52 0.49 0.47 0.47 0.47 0.47 0.46 0.46 0.46 0.46 0.46 0.46 0.45 0.45 0.44 0.41 0.38 0.37 0.37 0.37 0.35 0.35 0.33 0.32 0.33 0.32 0.32 0.33 0.32 0.32 0.31 0.31 0.30 0.31 0.31 0.32 0.33 0.33 0.32 0.31 0.31 0.31 0.31 0.31 0.32 0.32 0.33 0.33 0.34 0.34 0.35 0.37 0.39 0.41 0.42 0.43 0.43
0.31 0.31 0.32 0.33 0.32 0.32 0.32 0.32 0.32 0.33 0.34 0.36 0.37 0.38 0.37 0.36 0.34 0.34 0.36 0.41 0.44 0.46 0.49 0.50 0.51 0.52 0.52 0.52 0.52 0.52 0.50 0.49 0.49 0.48 0.47 0.46 0.46 0.46 0.45 0.44 0.44 0.44 0.42 0.39 0.38 0.37 0.37 0.37 0.36 0.35 0.35 0.35 0.34 0.32 0.33 0.33 0.32 0.32 0.31 0.31 0.30 0.30 0.30 0.32 0.32 0.31 0.31 0.31 0.31 0.31 0.32 0.32 0.32 0.32 0.32 0.33 0.34 0.35 0.36 0.37 0.39 0.40 0.42 0.43 0.44
0.31 0.31 0.31 0.32 0.33 0.34 0.35 0.34 0.34 0.34 0.35 0.35 0.36 0.36 0.36 0.37 0.37 0.35 0.35 0.39 0.42 0.40 0.41 0.45 0.50 0.53 0.52 0.51 0.51 0.51 0.50 0.50 0.49 0.47 0.46 0.46 0.46 0.46 0.45 0.41 0.41 0.41 0.41 0.41 0.39 0.38 0.38 0.37 0.36 0.35 0.35 0.33 0.34 0.34 0.34 0.34 0.33 0.33 0.31 0.30 0.29 0.29 0.29 0.29 0.29 0.30 0.30 0.31 0.31 0.31 0.31 0.32 0.32 0.32 0.32 0.32 0.33 0.34 0.35 0.37 0.39 0.41 0.42 0.44 0.45
0.32 0.32 0.32 0.33 0.33 0.33 0.35 0.35 0.36 0.37 0.37 0.37 0.36 0.38 0.39 0.39 0.38 0.37 0.37 0.40 0.44 0.45 0.46 0.50 0.48 0.50 0.51 0.51 0.52 0.51 0.50 0.49 0.47 0.45 0.44 0.45 0.45 0.45 0.40 0.40 0.41 0.42 0.41 0.41 0.40 0.41 0.40 0.38 0.37 0.35 0.35 0.34 0.35 0.35 0.35 0.35 0.34 0.32 0.30 0.29 0.28 0.28 0.27 0.27 0.28 0.29 0.30 0.31 0.31 0.31 0.31 0.32 0.32 0.32 0.33 0.34 0.34 0.35 0.36 0.37 0.38 0.40 0.43 0.44 0.46
0.34 0.33 0.33 0.34 0.35 0.37 0.37 0.38 0.38 0.38 0.40 0.41 0.42 0.43 0.43 0.43 0.42 0.41 0.41 0.41 0.41 0.42 0.44 0.50 0.48 0.46 0.48 0.49 0.49 0.48 0.47 0.45 0.44 0.43 0.42 0.43 0.44 0.42 0.38 0.39 0.42 0.45 0.44 0.43 0.42 0.41 0.40 0.38 0.37 0.36 0.36 0.35 0.36 0.37 0.36 0.34 0.32 0.30 0.29 0.29 0.29 0.28 0.26 0.26 0.27 0.29 0.30 0.31 0.31 0.31 0.31 0.31 0.32 0.32 0.33 0.33 0.34 0.35 0.36 0.37 0.38 0.40 0.42 0.45 0.47
0.37 0.36 0.35 0.36 0.36 0.37 0.38 0.39 0.41 0.41 0.40 0.40 0.40 0.42 0.43 0.43 0.42 0.41 0.41 0.42 0.43 0.42 0.42 0.46 0.45 0.42 0.41 0.41 0.45 0.44 0.43 0.42 0.42 0.41 0.41 0.42 0.42 0.39 0.39 0.42 0.44 0.43 0.41 0.41 0.41 0.40 0.39 0.38 0.38 0.37 0.37 0.38 0.37 0.37 0.34 0.31 0.31 0.30 0.30 0.29 0.29 0.28 0.26 0.26 0.27 0.29 0.30 0.30 0.30 0.31 0.31 0.31 0.32 0.33 0.33 0.33 0.34 0.35 0.36 0.37 0.38 0.39 0.42 0.45 0.47
0.38 0.38 0.37 0.37 0.38 0.41 0.42 0.43 0.43 0.43 0.43 0.41 0.41 0.40 0.39 0.40 0.41 0.41 0.42 0.43 0.41 0.42 0.43 0.43 0.42 0.41 0.41 0.41 0.40 0.41 0.40 0.37 0.36 0.37 0.39 0.40 0.40 0.40 0.41 0.43 0.42 0.40 0.40 0.40 0.40 0.40 0.40 0.39 0.39 0.39 0.38 0.39 0.37 0.34 0.32 0.31 0.31 0.31 0.30 0.30 0.28 0.27 0.26 0.25 0.25 0.27 0.29 0.29 0.30 0.31 0.31 0.31 0.32 0.33 0.33 0.34 0.34 0.35 0.36 0.37 0.38 0.40 0.42 0.44 0.47
0.39 0.39 0.38 0.37 0.38 0.40 0.43 0.46 0.46 0.44 0.42 0.41 0.40 0.42 0.40 0.38 0.40 0.42 0.47 0.47 0.44 0.43 0.43 0.42 0.41 0.42 0.42 0.41 0.39 0.39 0.37 0.37 0.38 0.40 0.40 0.40 0.40 0.41 0.42 0.41 0.41 0.42 0.42 0.41 0.41 0.41 0.41 0.41 0.41 0.40 0.39 0.38 0.35 0.32 0.32 0.32 0.32 0.31 0.31 0.30 0.28 0.27 0.26 0.25 0.24 0.26 0.27 0.29 0.30 0.30 0.31 0.31 0.32 0.32 0.33 0.33 0.34 0.35 0.35 0.36 0.38 0.40 0.42 0.45 0.47
0.40 0.41 0.43 0.44 0.44 0.46 0.46 0.46 0.44 0.43 0.42 0.41 0.39 0.39 0.38 0.40 0.41 0.43 0.45 0.46 0.45 0.43 0.42 0.43 0.43 0.43 0.43 0.42 0.43 0.43 0.42 0.42 0.42 0.42 0.41 0.41 0.43 0.44 0.44 0.43 0.43 0.43 0.43 0.42 0.42 0.42 0.42 0.42 0.42 0.40 0.38 0.35 0.32 0.32 0.32 0.32 0.32 0.32 0.31 0.30 0.29 0.27 0.27 0.26 0.25 0.25 0.26 0.28 0.29 0.30 0.31 0.32 0.32 0.32 0.31 0.33 0.34 0.35 0.36 0.37 0.38 0.39 0.42 0.45 0.47
0.42 0.43 0.46 0.48 0.48 0.49 0.47 0.45 0.45 0.43 0.42 0.40 0.39 0.38 0.38 0.38 0.39 0.41 0.41 0.42 0.42 0.42 0.41 0.41 0.42 0.42 0.43 0.45 0.46 0.46 0.45 0.45 0.45 0.45 0.46 0.46 0.46 0.44 0.43 0.44 0.45 0.45 0.44 0.44 0.44 0.44 0.45 0.44 0.41 0.39 0.34 0.33 0.32 0.32 0.32 0.33 0.32 0.32 0.32 0.30 0.29 0.28 0.27 0.26 0.25 0.25 0.26 0.27 0.28 0.29 0.30 0.31 0.32 0.32 0.32 0.33 0.33 0.34 0.35 0.36 0.37 0.39 0.41 0.43 0.46
0.46 0.48 0.49 0.51 0.50 0.48 0.47 0.45 0.44 0.43 0.42 0.40 0.39 0.38 0.39 0.39 0.38 0.39 0.39 0.39 0.40 0.41 0.41 0.41 0.42 0.44 0.45 0.46 0.47 0.47 0.46 0.46 0.46 0.46 0.46 0.45 0.44 0.44 0.45 0.45 0.45 0.46 0.46 0.47 0.47 0.47 0.46 0.43 0.40 0.36 0.33 0.33 0.33 0.33 0.33 0.34 0.34 0.33 0.32 0.30 0.29 0.28 0.27 0.27 0.26 0.25 0.26 0.26 0.27 0.28 0.29 0.30 0.31 0.32 0.32 0.32 0.33 0.33 0.34 0.35 0.36 0.38 0.39 0.42 0.44
0.50 0.50 0.49 0.48 0.47 0.46 0.44 0.43 0.42 0.42 0.41 0.41 0.41 0.41 0.41 0.41 0.41 0.42 0.42 0.42 0.42 0.42 0.43 0.43 0.43 0.44 0.45 0.46 0.46 0.45 0.44 0.45 0.44 0.43 0.43 0.43 0.44 0.45 0.45 0.46 0.47 0.47 0.47 0.48 0.49 0.48 0.45 0.41 0.36 0.33 0.34 0.34 0.35 0.35 0.36 0.36 0.35 0.33 0.32 0.31 0.30 0.29 0.28 0.27 0.26 0.25 0.25 0.25 0.26 0.27 0.28 0.29 0.30 0.31 0.32 0.32 0.32 0.32 0.33 0.34 0.35 0.36 0.38 0.40 0.42
0.47 0.45 0.44 0.44 0.44 0.45 0.45 0.46 0.45 0.45 0.46 0.46 0.46 0.45 0.45 0.45 0.45 0.44 0.43 0.43 0.43 0.43 0.44 0.45 0.45 0.45 0.45 0.45 0.45 0.45 0.44 0.44 0.44 0.44 0.45 0.45 0.46 0.47 0.47 0.47 0.47 0.47 0.48 0.47 0.47 0.45 0.41 0.36 0.33 0.33 0.33 0.34 0.35 0.35 0.36 0.37 0.36 0.35 0.33 0.31 0.30 0.29 0.28 0.27 0.27 0.26 0.26 0.25 0.26 0.27 0.28 0.29 0.29 0.30 0.31 0.32 0.32 0.32 0.32 0.33 0.34 0.35 0.36 0.38 0.40
0.47 0.48 0.48 0.49 0.49 0.49 0.48 0.48 0.48 0.48 0.48 0.48 0.46 0.46 0.47 0.47 0.47 0.47 0.47 0.47 0.47 0.47 0.46 0.46 0.46 0.46 0.45 0.44 0.45 0.45 0.46 0.46 0.47 0.47 0.47 0.47 0.47 0.46 0.47 0.47 0.48 0.48 0.47 0.45 0.43 0.40 0.37 0.35 0.34 0.34 0.34 0.34 0.35 0.36 0.37 0.37 0.36 0.35 0.34 0.33 0.31 0.30 0.30 0.29 0.28 0.26 0.25 0.24 0.25 0.27 0.27 0.28 0.28 0.29 0.30 0.31 0.31 0.32 0.32 0.33 0.34 0.34 0.35 0.37 0.39
0.52 0.51 0.51 0.51 0.50 0.49 0.49 0.49 0.49 0.49 0.49 0.48 0.48 0.47 0.47 0.48 0.47 0.47 0.48 0.48 0.47 0.47 0.46 0.46 0.46 0.45 0.45 0.45 0.45 0.46 0.46 0.47 0.47 0.47 0.47 0.46 0.46 0.46 0.47 0.46 0.45 0.44 0.42 0.40 0.38 0.37 0.36 0.36 0.35 0.35 0.35 0.35 0.36 0.36 0.37 0.37 0.35 0.35 0.34 0.33 0.32 0.31 0.30 0.29 0.28 0.27 0.25 0.24 0.25 0.26 0.27 0.27 0.27 0.27 0.29 0.30 0.31 0.31 0.32 0.33 0.33 0.33 0.34 0.36 0.37
0.52 0.51 0.51 0.50 0.50 0.49 0.49 0.49 0.48 0.49 0.49 0.48 0.48 0.48 0.48 0.48 0.48 0.47 0.47 0.47 0.47 0.47 0.46 0.46 0.46 0.46 0.45 0.45 0.45 0.46 0.46 0.46 0.46 0.46 0.46 0.46 0.45 0.45 0.44 0.43 0.41 0.40 0.38 0.37 0.35 0.36 0.36 0.36 0.35 0.35 0.35 0.35 0.35 0.36 0.36 0.36 0.35 0.34 0.33 0.32 0.31 0.30 0.29 0.28 0.28 0.27 0.26 0.25 0.24 0.25 0.26 0.26 0.27 0.27 0.28 0.29 0.30 0.31 0.31 0.31 0.33 0.34 0.34 0.35 0.36
0.52 0.51 0.50 0.50 0.49 0.49 0.49 0.48 0.48 0.48 0.48 0.48 0.48 0.47 0.47 0.47 0.47 0.47 0.48 0.48 0.48 0.47 0.47 0.46 0.46 0.45 0.44 0.43 0.43 0.43 0.43 0.43 0.42 0.42 0.42 0.42 0.42 0.42 0.41 0.40 0.39 0.38 0.36 0.35 0.35 0.36 0.36 0.36 0.36 0.36 0.36 0.35 0.35 0.35 0.35 0.34 0.33 0.32 0.31 0.31 0.30 0.29 0.28 0.27 0.27 0.27 0.26 0.26 0.25 0.24 0.25 0.26 0.26 0.27 0.27 0.28 0.30 0.31 0.31 0.32 0.32 0.33 0.34 0.35 0.35
0.51 0.51 0.50 0.50 0.49 0.50 0.50 0.50 0.49 0.49 0.49 0.49 0.48 0.48 0.48 0.48 0.48 0.48 0.48 0.48 0.48 0.47 0.47 0.46 0.44 0.43 0.42 0.41 0.40 0.40 0.40 0.39 0.39 0.38 0.38 0.38 0.39 0.39 0.38 0.38 0.37 0.37 0.35 0.35 0.36 0.36 0.36 0.36 0.36 0.36 0.36 0.36 0.35 0.35 0.34 0.32 0.31 0.31 0.30 0.30 0.29 0.29 0.28 0.28 0.27 0.27 0.26 0.26 0.25 0.24 0.24 0.24 0.25 0.26 0.27 0.28 0.30 0.30 0.30 0.31 0.32 0.33 0.33 0.34 0.34
0.52 0.51 0.51 0.50 0.48 0.48 0.48 0.48 0.48 0.49 0.49 0.48 0.47 0.47 0.46 0.46 0.46 0.47 0.47 0.46 0.45 0.44 0.43 0.42 0.40 0.39 0.38 0.38 0.38 0.38 0.37 0.37 0.36 0.36 0.36 0.36 0.37 0.37 0.37 0.36 0.36 0.35 0.35 0.36 0.36 0.36 0.36 0.36 0.36 0.36 0.35 0.35 0.34 0.33 0.32 0.32 0.31 0.31 0.31 0.30 0.30 0.30 0.29 0.29 0.28 0.27 0.27 0.26 0.25 0.25 0.24 0.23 0.24 0.25 0.26 0.28 0.29 0.30 0.30 0.31 0.32 0.32 0.33 0.33 0.34
Wind_Speed
21 23 22 22 21 20 19 18 17 17 16 15 14 14 14 13 13 12 12 11 10 9 9 9 9 9 9 9 9 9 9 8 8 8 7 7 7 7 7 7 7 7 7 7 7 7 7 7 7 7 7 6 6 6 6 5 5 5 6 6 6 7 7 7 6 7 7 8 8 8 8 9 9 10 11 11 12 12 13 13 14 14 14 15 15
20 21 21 21 21 20 19 18 18 18 17 16 15 15 14 14 14 13 12 12 11 10 10 10 10 10 10 10 10 10 10 9 9 9 9 9 8 8 8 8 8 8 8 8 8 8 8 8 8 8 8 8 8 8 7 7 7 7 7 7 7 7 7 8 8 8 8 8 9 9 9 10 11 11 12 12 13 14 14 15 15 16 16 17 17
17 18 19 19 19 19 18 18 18 18 18 17 16 15 15 15 14 14 13 13 12 11 11 10 10 11 11 12 11 11 11 10 10 10 10 10 10 10 10 10 10 10 9 9 9 9 9 10 10 9 9 9 9 9 9 9 8 8 8 8 7 7 8 8 9 9 9 9 10 10 11 12 12 12 13 14 15 15 16 16 17 18 18 19 19
14 15 16 18 18 17 17 17 17 18 18 18 17 16 16 16 15 15 14 14 13 13 12 12 12 12 13 13 13 13 12 11 11 12 12 12 12 12 12 12 12 12 12 11 11 11 11 11 11 11 11 10 10 10 10 10 10 10 9 9 9 9 9 9 10 10 11 11 11 12 13 13 14 14 15 15 16 17 18 18 19 20 20 21 21
13 14 15 16 16 16 16 16 16 17 17 18 18 17 17 17 16 16 15 15 14 14 14 14 14 14 14 14 14 14 14 13 13 13 13 14 14 14 14 14 14 14 14 14 13 13 13 13 13 12 12 12 12 12 12 12 11 11 11 11 11 11 11 11 11 12 12 13 13 14 14 15 15 16 16 17 18 18 19 20 21 22 23 23 23
12 13 14 15 15 16 16 16 16 16 17 18 18 18 18 17 17 17 16 16 16 16 15 15 15 15 15 15 15 15 15 15 14 14 14 15 15 16 16 15 15 15 15 15 15 15 15 15 15 15 14 14 14 14 13 13 13 13 13 13 13 13 13 13 13 14 14 15 15 16 16 17 17 17 18 18 19 20 20 21 22 22 23 24 25
12 12 13 14 14 15 15 15 16 16 17 17 18 18 18 18 17 17 17 17 17 17 17 16 17 17 16 16 16 16 16 15 15 15 16 16 16 16 16 16 16 16 15 16 16 16 17 17 17 17 16 16 16 16 15 15 15 15 15 15 15 15 16 16 16 16 16 16 17 17 18 18 18 18 18 20 20 20 21 22 23 24 24 25 25
11 12 13 13 14 14 15 15 15 16 16 17 18 18 18 18 18 18 18 18 18 18 17 17 17 17 17 17 17 17 17 17 16 17 17 17 16 16 16 17 17 17 16 16 16 16 17 17 17 18 18 18 18 18 18 17 17 17 17 17 18 18 18 17 17 18 18 19 19 19 19 19 19 19 20 20 21 22 22 24 25 25 26 26 26
12 12 12 13 14 14 15 15 15 15 16 17 18 19 19 19 19 19 19 19 18 19 18 18 18 18 18 18 18 18 18 18 17 17 17 17 16 16 16 16 16 16 16 16 16 16 17 17 18 18 19 19 19 19 20 20 20 20 19 19 19 19 19 19 19 20 20 21 21 20 21 22 21 21 22 22 23 24 25 26 26 26 27 27 27
13 13 13 14 14 15 15 15 15 16 16 17 18 19 20 20 19 19 19 19 19 19 19 19 18 19 19 18 18 18 18 18 17 16 16 16 15 15 15 15 15 15 16 16 16 17 17 18 18 18 19 20 20 21 21 22 22 22 21 21 21 21 20 21 21 21 21 22 22 22 23 23 23 23 24 25 26 27 27 28 28 28 28 28 28
14 14 15 15 15 15 15 16 16 16 16 17 18 19 19 19 19 20 19 19 19 19 19 19 19 19 19 19 19 18 18 17 16 16 15 15 15 15 14 14 15 15 16 16 17 17 18 18 19 19 19 20 21 22 22 22 23 23 23 23 23 22 22 22 23 23 23 24 24 24 25 25 25 26 26 27 28 29 30 30 30 30 29 30 30
15 16 16 17 17 17 17 17 16 16 16 17 18 19 19 20 20 20 20 20 20 20 20 20 20 20 20 19 19 18 18 17 17 17 16 16 16 16 16 16 16 17 17 18 18 19 19 20 20 20 21 21 21 22 23 23 23 24 24 24 24 25 25 25 25 25 25 26 26 26 26 27 27 28 28 29 31 31 32 32 31 32 32 32 32
16 17 17 18 18 18 18 18 18 17 17 17 18 18 19 20 20 21 21 21 22 22 21 20 19 19 19 18 18 18 18 18 18 18 18 18 19 18 18 18 19 19 19 20 20 20 21 21 22 22 22 22 22 23 23 24 24 24 25 25 26 26 26 26 27 27 28 28 28 28 28 29 29 30 30 31 32 33 33 33 33 33 34 34 35
16 17 17 18 18 18 18 19 19 19 19 18 18 18 19 19 19 20 20 20 20 20 19 19 18 18 17 18 18 18 19 19 20 20 20 20 21 20 20 20 20 21 21 21 22 22 22 22 23 22 22 22 23 23 23 24 24 24 25 26 26 26 27 27 28 28 29 29 29 29 30 30 31 31 32 32 33 33 33 34 34 35 35 36 37
17 17 17 17 18 18 18 19 19 19 19 19 19 19 19 19 20 20 20 19 19 18 18 18 18 18 18 19 19 19 20 20 21 21 22 22 22 22 21 21 22 22 22 22 22 23 23 23 23 23 23 23 23 23 23 23 24 24 25 26 26 27 27 28 28 29 29 29 29 30 30 31 32 32 33 33 33 33 34 34 35 36 36 36 36
18 18 18 18 18 18 19 19 19 20 20 20 20 20 20 20 20 20 20 20 20 20 20 20 20 20 20 20 20 20 20 21 21 22 22 23 23 23 23 23 23 23 23 23 23 23 23 23 23 23 23 23 23 23 23 23 24 24 25 26 27 27 28 28 28 29 29 30 30 30 31 32 32 33 33 33 33 34 34 35 35 35 35 36 36
19 19 18 18 18 19 19 19 19 20 21 21 21 21 21 21 21 21 21 22 22 23 23 22 22 22 22 22 22 22 22 22 22 23 23 23 24 24 24 24 23 23 23 23 23 23 23 24 23 23 23 23 23 23 24 24 24 25 26 26 27 28 29 29 29 30 30 30 31 31 32 32 33 33 33 33 34 34 34 35 34 34 35 35 35
18 18 18 18 19 19 20 20 20 20 20 20 21 21 21 21 22 22 22 22 23 23 23 23 23 23 23 23 23 23 23 23 23 24 24 25 25 24 24 24 24 23 23 23 23 23 23 24 24 24 24 24 23 24 24 25 25 26 27 28 28 29 29 30 31 31 31 32 32 32 33 33 33 34 34 34 34 34 34 34 34 34 35 35 35
18 18 18 19 20 20 21 21 21 22 22 22 22 22 22 22 22 22 23 23 23 23 23 23 24 24 23 23 23 24 24 24 24 25 25 25 25 24 24 24 24 23 23 24 24 24 23 23 24 24 24 24 23 24 25 26 26 27 28 29 29 30 30 31 31 32 32 32 33 33 33 33 34 34 34 34 34 34 34 34 34 34 34 35 35
21 21 22 22 22 23 23 23 23 23 23 23 23 24 24 24 24 24 24 24 24 24 24 24 24 24 24 24 24 24 24 24 24 24 25 25 24 24 24 24 24 24 24 24 24 24 24 24 24 24 24 24 24 25 26 27 27 28 29 29 29 30 30 31 31 32 32 33 33 33 33 33 33 33 33 33 33 33 33 34 34 34 34 35 36
25 25 25 26 26 26 26 25 25 26 26 26 26 26 27 27 27 27 26 26 26 25 25 25 25 25 25 25 25 24 24 24 24 24 24 24 25 24 24 25 25 26 26 26 26 26 25 25 25 25 25 25 26 26 27 27 28 28 29 29 30 31 31 31 32 32 32 33 33 33 33 32 32 32 32 33 33 33 33 33 34 34 35 35 36
26 27 27 27 28 28 28 28 28 28 28 28 28 28 28 28 28 28 28 27 27 27 26 26 26 26 26 25 25 25 25 25 25 25 26 26 26 26 26 27 27 27 28 28 28 28 27 27 27 27 27 27 27 27 28 28 29 29 30 30 31 31 32 32 32 32 32 32 32 32 32 32 32 32 32 32 32 33 33 34 34 34 35 35 36
27 28 28 28 28 29 29 30 30 30 30 29 29 29 29 29 29 29 29 28 28 28 28 28 28 28 27 27 27 27 26 26 26 27 27 27 28 28 28 29 29 29 29 29 30 29 29 29 29 28 28 28 28 28 29 29 30 30 30 30 31 32 32 32 32 32 32 32 32 32 32 32 32 32 32 32 32 33 34 34 34 35 35 35 35
30 30 30 30 30 30 31 31 31 32 31 31 30 30 30 29 29 29 30 30 30 30 30 30 29 29 29 29 29 28 28 28 28 28 28 28 28 29 29 29 29 29 29 30 30 30 30 30 29 29 28 29 29 29 30 30 30 30 30 31 31 31 31 31 31 32 32 32 32 32 31 31 31 31 32 32 33 33 34 34 34 34 34 34 34
32 32 32 32 32 32 32 32 33 33 33 32 32 31 31 31 30 30 30 30 31 31 31 31 30 31 31 30 30 30 29 29 29 29 29 29 29 30 30 30 30 30 30 30 30 30 30 29 29 29 29 29 30 30 30 30 30 30 31 31 31 31 31 31 31 31 31 31 31 31 31 31 31 31 32 32 32 32 32 32 32 32 32 32 32
34 34 34 33 33 33 33 33 33 33 33 33 33 33 32 32 32 32 32 32 32 32 32 32 32 32 32 32 31 31 31 31 31 31 31 31 31 31 31 31 30 30 30 30 30 30 29 29 29 29 30 30 30 30 30 30 30 30 30 30 30 30 30 30 30 30 30 30 30 30 30 30 30 30 31 30 30 30 30 30 30 30 30 29 29
36 36 36 36 35 35 35 34 34 34 34 34 34 35 34 34 34 34 34 33 33 33 33 33 33 32 32 32 32 32 32 32 32 32 32 33 33 32 32 32 32 32 32 31 31 30 30 30 29 29 29 29 30 30 30 30 30 30 30 30 30 30 30 30 30 29 29 29 29 29 29 29 29 28 28 28 28 28 28 28 28 28 28 27 28
39 39 39 39 38 38 37 37 37 37 36 36 37 37 37 37 37 36 36 36 35 35 35 34 34 34 33 33 33 33 33 33 33 33 34 34 34 34 34 34 34 33 33 32 31 31 31 30 30 30 30 30 30 30 30 30 30 29 29 29 29 29 28 28 28 27 27 27 27 27 27 27 27 26 26 27 27 27 27 27 26 26 26 26 26
42 42 41 41 41 41 40 40 40 39 39 39 39 39 39 39 38 38 38 37 37 36 36 36 36 36 35 35 35 35 35 35 34 34 35 35 35 35 35 35 34 34 33 32 32 31 31 31 31 30 30 30 30 29 29 29 29 29 28 28 28 27 27 27 26 26 26 26 25 25 25 25 24 24 25 25 25 25 25 25 25 25 25 25 25
44 43 43 42 42 42 41 41 41 41 41 40 40 40 40 40 40 40 40 39 39 38 38 38 38 37 37 37 36 36 36 36 35 35 35 35 35 35 35 35 34 34 33 33 32 31 31 31 31 30 30 29 29 29 28 28 28 28 27 27 26 26 26 25 25 24 24 24 24 23 23 23 23 23 23 23 23 23 23 23 24 24 24 24 24
44 43 43 42 42 42 42 42 41 41 41 41 41 41 41 41 41 41 41 41 41 41 40 40 40 39 39 38 37 37 37 37 36 36 36 36 36 35 35 34 34 33 33 33 32 31 31 31 30 29 29 28 28 28 28 27 27 26 26 25 24 24 24 23 23 23 22 22 21 21 21 21 21 21 21 22 22 22 22 22 22 22 23 23 24
43 42 42 41 41 41 42 42 41 41 41 41 41 40 40 40 39 39 40 40 40 40 40 40 40 40 39 38 37 37 36 36 36 35 35 35 34 34 34 33 33 33 32 32 31 31 30 29 29 28 28 27 27 27 26 26 25 24 24 23 23 22 22 21 21 20 20 19 19 19 19 19 20 20 20 21 21 21 21 21 21 22 22 22 23
41 40 40 40 40 40 40 40 40 40 40 40 40 40 39 39 39 38 38 38 38 38 38 38 38 38 37 37 36 36 35 34 34 33 33 32 32 32 31 31 31 31 30 30 29 29 28 28 27 26 26 26 25 25 24 24 23 22 22 21 20 20 19 19 18 18 17 17 17 17 18 18 19 19 19 19 19 19 19 20 20 21 21 21 21
38 38 38 38 38 37 37 37 37 38 38 38 38 38 38 38 38 38 37 37 37 37 37 37 37 36 36 36 35 34 33 33 32 32 31 30 29 29 29 28 28 28 28 28 27 26 26 25 25 24 24 24 23 23 22 21 21 20 20 19 18 17 17 16 16 15 15 16 16 17 17 17 17 17 17 17 17 18 19 19 20 20 20 20 21
37 37 37 37 37 36 36 36 36 36 36 36 37 37 37 37 37 37 37 37 36 36 36 37 37 36 36 35 35 34 34 33 32 31 30 29 29 28 27 26 26 26 26 25 24 23 23 23 22 22 22 22 21 20 20 20 19 18 17 16 16 15 14 14 14 14 15 15 15 16 16 15 15 15 15 16 17 18 18 19 19 19 20 20 21
35 35 34 34 34 34 34 34 33 33 33 34 34 35 35 35 35 35 36 37 36 36 35 35 35 35 36 35 35 34 34 33 32 31 30 29 28 27 26 25 24 24 23 22 22 21 21 21 21 20 20 20 19 19 18 18 17 16 15 14 13 13 12 12 13 14 14 14 14 14 14 13 13 14 14 15 16 17 17 18 18 19 19 20 20
32 31 31 30 31 31 31 30 30 30 30 30 31 31 31 32 32 32 33 34 35 35 35 34 34 34 35 35 34 34 33 32 31 30 29 28 27 26 25 24 23 22 21 21 20 20 19 19 19 19 18 18 18 17 16 16 15 14 13 12 12 12 12 12 13 13 13 12 12 12 12 12 12 13 14 15 16 16 16 17 17 18 18 19 20
28 28 28 27 27 27 27 27 27 26 27 27 27 28 28 28 29 29 30 31 31 32 32 33 32 32 33 33 33 32 31 30 29 28 27 27 26 25 24 23 22 22 21 20 20 19 19 19 18 18 17 17 16 16 15 14 13 12 12 11 11 11 12 12 12 11 11 11 11 10 11 11 12 13 13 14 15 15 16 16 17 17 18 19 19
24 24 25 24 24 23 23 23 22 22 23 23 24 25 26 26 26 27 28 28 28 29 30 30 30 30 30 29 30 30 29 28 27 27 26 26 25 24 23 22 21 21 20 19 19 18 17 17 17 16 16 16 15 14 13 13 12 11 11 10 11 11 11 10 10 10 10 10 10 10 10 11 12 12 13 13 14 15 15 16 16 17 17 18 19
19 19 20 20 20 19 19 19 19 19 19 20 21 22 22 23 23 24 24 25 25 26 26 26 26 26 26 26 26 26 26 25 25 25 25 24 24 22 21 21 20 20 19 18 17 16 16 16 16 15 15 14 14 13 12 11 11 10 10 10 10 10 10 9 9 9 9 9 9 9 10 11 12 12 12 13 13 14 15 15 15 16 17 18 18
15 15 15 15 16 16 16 16 16 17 17 18 18 19 19 20 20 21 22 22 22 22 23 23 23 22 22 22 22 23 23 23 23 23 23 22 22 21 20 20 19 19 18 17 16 15 15 15 15 14 13 13 12 11 11 11 10 10 9 9 9 9 9 9 9 9 9 9 9 10 10 11 11 11 12 12 13 14 14 14 15 15 16 17 17
11 12 12 13 13 13 13 14 14 15 15 16 17 18 18 19 19 20 20 21 21 20 20 20 20 19 19 19 20 20 20 20 20 20 20 20 20 20 19 18 18 17 16 15 15 15 14 14 13 13 12 11 11 10 10 10 10 9 9 9 9 9 9 9 9 9 9 9 10 10 10 11 11 11 12 13 13 13 14 14 14 15 16 17 17
9 9 9 10 11 11 12 12 13 13 14 14 15 16 17 17 18 18 18 19 19 19 19 18 18 18 17 17 17 17 17 17 18 19 19 19 19 19 18 17 17 16 15 15 14 14 13 12 12 12 11 10 10 10 10 9 9 9 9 9 9 9 9 9 9 9 10 10 9 9 10 10 11 11 12 12 13 13 14 14 14 15 16 16 17
6 6 7 8 8 9 10 10 11 11 11 11 12 13 13 14 14 15 15 16 16 16 16 16 15 14 14 14 14 15 15 16 17 18 18 18 18 17 17 16 16 15 15 14 13 12 12 12 12 11 10 10 10 10 10 9 9 9 9 9 9 9 9 9 10 10 10 9 9 9 9 10 11 11 12 13 13 13 13 14 14 15 15 16 17
4 4 4 5 5 5 6 6 7 7 7 7 7 7 8 9 10 10 11 11 11 11 11 11 11 11 12 12 13 13 14 15 16 16 16 16 16 16 16 15 15 15 14 13 12 12 12 11 11 11 10 10 11 11 10 10 10 9 9 9 9 9 10 10 10 10 10 9 9 9 9 10 11 11 12 12 12 13 13 14 14 15 15 16 17
4 3 2 2 1 1 1 2 2 3 3 2 1 2 3 4 5 7 7 8 9 9 9 9 9 10 11 12 13 13 13 14 14 14 14 14 14 15 14 14 14 13 12 12 12 12 12 11 11 11 11 11 11 10 10 10 10 10 9 9 9 10 10 10 10 10 9 9 9 9 9 10 10 11 11 12 12 12 13 13 14 14 15 15 16
6 5 4 4 4 4 4 5 5 5 6 6 6 7 7 8 8 8 9 9 9 10 9 9 9 10 11 11 12 12 12 12 13 13 13 13 13 13 13 13 12 12 12 11 12 12 12 11 11 11 11 10 10 10 10 10 10 10 10 10 10 10 10 10 10 9 9 9 9 10 10 10 10 10 11 12 12 12 13 13 14 14 15 15 16
7 7 7 7 7 7 7 7 7 7 7 8 8 9 9 9 10 10 9 9 9 9 8 8 8 8 9 10 11 11 11 11 12 12 12 12 12 12 12 12 12 11 11 11 11 11 11 11 11 10 10 10 9 9 9 9 10 10 10 10 10 10 10 10 10 9 9 9 10 10 10 10 10 10 11 11 11 12 12 13 14 14 15 15 15
9 9 10 10 10 9 9 8 8 8 8 8 8 9 9 9 9 8 8 8 8 8 7 7 7 7 7 8 9 10 10 11 11 11 11 11 11 11 11 11 11 11 11 11 11 11 10 10 10 9 9 9 9 9 9 9 10 10 10 10 10 10 11 10 10 10 10 10 10 11 11 11 10 10 11 11 11 11 12 13 13 14 14 14 15
10 10 10 10 10 9 9 8 8 7 7 7 7 7 7 7 7 6 7 7 7 6 6 5 5 6 6 7 9 10 10 11 11 11 10 10 10 10 10 10 10 10 10 10 10 10 10 9 9 8 8 8 9 9 9 10 10 10 11 11 11 11 11 11 11 11 11 11 11 11 11 11 11 10 11 11 11 11 12 12 13 14 14 14 15
10 10 9 9 9 9 9 9 8 8 7 7 7 6 6 6 5 5 5 5 5 5 4 5 5 6 6 7 8 9 10 10 10 10 9 9 9 9 9 9 9 10 9 9 9 9 9 8 8 8 9 9 9 9 10 10 10 11 11 12 12 12 12 12 12 11 11 12 12 11 11 11 11 11 11 11 11 12 12 12 13 13 13 14 14
Wind_Direction
209 210 214 219 221 221 224 224 221 221 223 226 229 231 230 229 229 229 229 230 233 235 237 238 241 243 244 246 248 250 252 253 256 259 262 263 263 263 264 265 268 269 269 269 270 271 271 271 271 271 270 269 268 269 270 270 269 268 267 265 265 267 270 269 265 266 272 275 276 280 283 281 284 289 290 289 291 291 291 292 293 293 292 291 291
213 214 216 218 219 219 222 223 222 223 225 228 230 231 230 229 229 229 228 228 231 234 237 239 241 243 243 244 245 247 249 251 255 259 262 262 262 263 263 264 266 267 267 268 268 268 268 267 268 269 270 269 267 267 267 269 270 270 270 270 269 272 273 272 271 271 274 277 277 280 286 285 285 289 292 292 292 292 292 293 293 292 293 293 291
212 213 213 213 214 216 219 222 224 225 227 230 230 230 230 230 229 228 228 230 232 234 237 239 241 243 244 245 245 246 249 254 258 261 263 262 260 261 263 264 266 266 266 266 266 267 267 267 268 268 269 269 269 268 267 268 269 268 267 268 268 272 276 276 276 275 275 278 279 279 284 288 287 289 291 291 291 292 291 292 293 291 291 292 291
205 208 209 211 214 218 221 224 225 226 229 231 230 229 230 231 230 229 230 234 236 236 238 239 241 242 244 246 246 248 251 257 262 264 264 264 261 261 264 266 267 267 265 264 264 265 267 268 268 268 270 270 269 270 269 268 269 267 266 266 267 271 277 278 279 279 278 279 281 283 285 287 287 290 292 291 290 291 291 292 293 292 291 291 290
210 212 215 217 221 224 226 228 229 230 232 233 231 229 230 231 231 230 232 235 236 237 239 240 243 244 245 246 247 250 254 259 264 266 266 266 265 264 266 268 268 267 266 264 264 264 266 267 267 267 268 269 270 271 270 268 268 268 267 267 268 270 275 277 278 279 280 280 281 284 285 286 287 289 292 293 292 291 291 293 293 292 293 292 291
220 221 222 224 226 229 231 233 234 234 235 235 232 229 230 232 232 231 232 234 236 239 241 243 245 246 247 248 249 252 256 260 263 265 266 267 267 266 266 267 267 267 267 267 266 265 265 265 266 266 266 266 268 269 270 270 269 269 268 269 270 270 273 276 276 276 278 279 280 281 283 284 286 286 289 292 294 292 292 294 294 292 292 293 292
227 227 228 229 230 232 234 237 238 237 236 235 232 230 230 232 233 232 232 234 237 240 243 246 247 248 249 250 251 253 257 261 264 265 266 268 268 267 265 264 265 267 268 269 268 267 266 265 265 266 266 265 266 267 269 269 270 270 269 269 270 270 272 274 275 275 277 278 280 281 281 282 283 284 286 290 293 292 292 295 295 293 293 293 292
228 229 231 233 233 233 234 236 237 236 235 234 231 231 231 233 234 233 234 236 239 242 245 247 248 249 249 250 252 254 258 261 264 265 266 267 267 266 265 264 265 266 267 269 269 268 268 267 266 266 266 266 266 267 267 267 268 270 270 270 270 271 272 273 274 276 277 278 280 282 283 283 283 284 286 288 290 292 293 294 295 294 294 293 292
232 232 232 233 233 232 233 235 235 234 233 233 232 232 233 233 233 234 235 237 241 245 247 247 247 247 249 251 253 255 258 261 263 265 265 266 265 264 264 265 265 266 267 268 268 269 270 270 269 268 268 268 268 268 267 267 267 268 269 270 271 272 273 273 274 276 278 279 280 281 284 285 284 286 288 289 290 292 293 293 293 293 292 292 291
236 237 237 236 235 235 235 237 236 235 234 235 235 235 235 235 235 236 237 240 244 246 246 246 246 247 249 252 254 257 258 259 261 263 265 265 264 264 264 265 266 266 267 267 269 270 271 271 271 270 269 268 268 268 268 268 267 267 268 268 270 272 272 273 275 276 278 279 280 282 284 284 284 286 288 289 290 291 292 292 292 291 290 290 290
242 243 243 242 241 241 241 241 240 238 237 237 237 237 237 237 239 241 242 244 246 246 246 247 248 249 250 252 254 256 257 257 258 260 262 263 264 264 265 266 266 267 268 270 271 273 274 274 275 273 272 271 270 269 268 267 266 267 268 268 269 269 269 272 274 276 277 279 280 282 284 284 284 286 286 288 290 291 291 291 291 290 289 289 289
248 248 248 246 245 245 245 244 243 243 241 239 239 239 240 239 240 242 245 246 247 248 250 250 249 248 249 250 252 254 255 255 256 257 258 261 263 265 265 266 267 269 270 272 274 275 276 277 276 275 275 275 273 271 270 268 267 267 267 268 269 269 269 271 273 275 277 279 280 282 283 284 285 285 286 287 289 289 289 289 288 289 289 289 289
251 251 251 249 248 248 247 246 245 245 245 244 243 242 242 242 242 244 245 246 247 248 249 247 245 244 245 247 250 253 254 254 254 255 257 260 263 265 266 268 269 271 273 275 275 276 277 277 277 276 276 275 273 272 272 271 270 269 268 268 269 270 270 271 273 276 278 279 280 281 283 284 285 285 286 287 288 288 288 288 287 287 288 288 288
252 254 253 252 250 249 248 246 246 246 246 246 246 245 244 244 244 245 245 245 244 243 242 240 240 242 245 249 252 254 255 257 257 257 259 260 262 265 268 270 271 273 274 275 276 276 277 277 277 276 276 276 274 273 273 272 271 270 270 270 270 271 272 273 275 277 278 279 280 281 282 283 284 285 286 287 287 287 287 287 288 288 287 287 287
253 253 253 251 249 248 248 247 246 246 246 247 247 247 246 246 245 245 244 242 239 238 238 239 242 246 250 254 256 257 258 259 259 259 260 261 263 266 268 270 272 273 275 276 276 277 277 277 277 277 276 276 275 274 273 272 271 271 271 272 272 273 274 275 276 278 279 280 281 281 282 283 284 285 286 286 286 286 287 287 287 288 288 288 287
252 252 249 247 245 246 247 247 248 248 248 248 248 247 248 247 246 246 245 244 243 243 245 247 249 252 254 256 257 258 259 261 261 260 261 262 264 266 268 269 270 272 274 276 277 278 278 278 277 277 277 276 276 275 273 272 271 271 271 273 273 274 275 277 278 279 280 281 282 282 283 283 284 284 285 286 286 287 287 287 287 287 287 287 287
251 249 248 247 246 246 247 248 249 250 250 250 250 249 248 248 248 248 248 247 248 248 249 251 252 254 256 257 258 259 260 262 262 262 262 263 265 267 268 268 269 270 272 274 275 276 277 278 277 276 276 276 276 275 275 273 272 272 272 273 273 275 276 278 279 280 281 281 282 282 283 283 283 284 284 285 286 287 288 288 287 287 287 287 287
249 248 247 248 248 248 248 249 250 251 252 252 251 251 250 250 250 250 250 249 249 249 250 251 253 255 256 258 260 261 261 263 263 263 264 265 267 268 268 268 269 270 271 272 274 275 277 278 278 277 275 275 275 275 276 276 274 273 274 274 274 275 277 278 280 280 281 282 282 282 283 283 284 284 284 285 286 287 287 288 288 288 288 288 288
252 251 250 250 250 250 250 251 252 252 252 252 252 252 253 253 252 252 251 250 250 250 251 252 254 256 257 259 261 263 263 263 264 264 265 266 267 267 267 268 269 270 271 273 274 275 276 278 279 278 276 275 275 276 277 277 276 276 276 276 277 277 278 279 280 281 282 282 283 283 284 284 284 285 285 285 286 287 287 288 289 289 288 288 289
258 257 255 255 255 254 254 254 254 254 254 253 253 253 255 255 254 253 253 252 252 253 253 253 254 256 259 260 262 263 264 264 264 264 265 265 265 265 266 267 269 271 273 274 275 275 276 276 277 277 276 275 275 276 277 278 278 277 278 278 278 279 280 280 281 282 282 283 283 284 284 284 285 286 286 286 286 286 287 287 288 288 288 289 289
260 259 259 258 257 256 256 255 255 256 256 256 256 256 256 255 255 254 254 254 254 254 254 255 256 258 260 262 262 263 264 264 264 264 264 264 264 265 266 268 270 272 274 274 275 275 275 275 276 276 275 275 276 277 278 279 279 278 278 278 278 279 280 281 281 282 282 283 283 284 284 285 285 285 286 286 286 286 287 287 287 287 288 288 288
261 260 260 260 258 257 256 257 257 257 257 256 256 257 256 254 253 253 253 252 252 253 254 256 258 260 262 263 263 263 264 264 264 264 264 265 265 266 268 269 271 273 274 274 274 274 274 275 276 275 275 275 276 277 278 279 279 278 278 279 279 280 280 280 281 282 282 283 283 284 284 284 285 285 286 286 286 287 287 288 288 288 288 288 288
262 261 260 260 258 257 257 258 257 257 256 256 256 256 255 253 252 252 252 252 252 252 254 256 258 260 261 262 263 263 264 264 265 265 265 266 267 268 269 271 271 272 273 274 274 273 273 275 275 275 275 275 276 277 277 278 278 278 278 279 279 280 280 280 281 282 282 283 283 284 284 284 284 285 286 286 287 287 288 288 289 289 289 289 289
262 261 260 259 259 258 258 258 257 257 256 256 255 255 254 253 252 252 253 254 254 253 254 255 255 257 258 260 261 262 263 264 265 266 266 267 268 268 270 271 271 271 272 273 273 273 273 274 274 274 274 275 276 277 278 278 278 278 279 279 280 280 281 281 281 282 282 283 283 283 284 284 284 285 286 286 287 288 289 289 289 290 290 290 289
262 261 261 260 260 260 260 259 258 258 257 256 255 254 253 253 253 253 253 253 254 254 254 255 255 256 258 259 259 261 263 264 265 266 267 268 268 269 269 270 271 271 271 272 272 273 273 274 273 273 274 275 276 277 278 278 278 279 279 280 280 281 282 282 282 283 283 282 282 283 283 284 284 285 286 287 288 288 289 289 289 290 290 290 289
262 262 261 261 261 261 261 261 260 259 257 256 255 255 254 254 254 254 254 254 254 255 255 256 256 257 259 260 261 261 262 264 265 266 267 268 269 269 270 270 271 271 271 272 272 273 273 273 273 273 273 274 275 276 277 278 278 279 280 280 281 281 282 283 283 283 282 282 282 283 283 284 284 285 286 287 287 287 288 288 289 290 290 290 290
262 262 262 262 262 262 262 261 260 259 258 257 255 255 255 255 255 255 255 255 255 255 256 256 257 258 260 261 262 261 262 263 264 266 267 268 268 269 269 270 270 270 271 272 272 272 272 272 273 273 274 274 275 276 277 278 278 279 280 281 282 282 283 283 283 282 282 282 283 283 283 283 284 284 285 286 286 287 288 288 289 289 290 291 292
263 263 263 263 263 262 262 262 261 260 259 258 257 256 256 256 256 256 255 255 256 256 256 257 258 259 261 262 262 262 263 264 264 266 267 268 268 269 269 269 270 270 270 271 271 271 271 271 272 272 273 274 275 275 277 278 279 281 281 282 282 282 282 282 282 281 281 282 282 282 282 283 283 283 284 285 286 287 288 288 289 290 291 292 293
264 263 263 262 262 262 261 261 261 260 259 259 258 257 256 256 256 256 256 256 256 257 257 258 259 260 261 262 263 263 265 266 266 267 267 268 268 269 269 269 269 269 269 269 270 270 270 270 271 271 272 273 274 275 276 278 280 281 281 282 281 280 280 280 280 281 281 281 281 282 282 283 283 284 284 286 287 288 289 289 290 291 292 293 294
264 264 263 263 262 262 261 261 260 259 259 259 258 258 257 257 256 256 256 256 257 257 258 259 261 262 262 263 263 264 265 266 267 267 268 268 268 269 269 269 269 268 267 267 268 269 269 269 270 270 271 273 274 274 276 278 279 279 280 280 279 279 279 279 279 280 280 281 281 281 282 283 283 284 285 287 288 289 290 291 291 292 293 294 294
264 264 263 263 262 261 261 260 260 259 259 258 258 258 257 257 256 256 256 256 257 258 258 259 261 262 262 262 263 264 265 266 267 267 267 267 268 268 268 268 267 265 265 266 267 267 267 267 268 269 270 271 273 274 275 277 277 277 278 278 278 278 279 279 279 279 279 279 280 281 281 282 284 285 287 288 290 291 291 292 293 294 295 295 295
263 263 262 262 261 261 260 260 259 259 258 258 257 257 257 257 256 256 256 256 257 257 258 259 260 261 261 261 263 264 265 266 266 266 266 267 267 267 266 265 264 263 263 264 265 265 265 265 266 268 269 270 271 273 274 275 275 276 276 276 277 277 277 277 277 277 277 278 279 280 282 283 285 287 288 289 290 291 293 294 295 297 297 297 297
262 261 261 260 260 260 260 260 259 258 258 257 257 256 256 256 256 256 256 256 256 256 257 257 258 258 259 260 261 263 264 264 264 265 266 266 266 265 264 263 261 260 261 262 263 263 263 264 265 266 267 268 269 271 272 272 273 274 275 275 275 276 276 275 274 274 275 277 279 281 283 285 287 288 289 290 291 293 295 297 298 299 300 300 299
262 261 260 260 259 259 259 259 258 258 257 257 256 256 256 256 256 255 255 255 255 255 256 256 256 256 257 258 259 261 261 262 262 263 264 265 264 262 262 261 259 259 259 261 261 261 261 262 263 264 265 266 267 268 269 270 271 272 273 273 273 273 272 271 271 273 276 277 279 282 285 287 288 289 290 292 294 296 298 299 301 302 303 302 302
261 261 260 259 258 258 258 258 258 258 257 256 256 256 256 255 255 255 254 255 255 255 255 255 256 256 257 258 258 259 260 261 261 262 263 262 261 259 259 258 257 256 257 258 258 258 259 260 261 262 262 263 264 265 267 268 269 270 270 269 268 268 269 270 272 275 277 278 280 283 286 287 289 291 293 295 297 299 301 303 304 304 304 304 304
261 260 259 258 257 256 256 257 257 257 257 256 255 255 255 254 254 253 253 253 254 254 254 254 254 255 257 258 258 259 259 260 260 260 260 259 257 256 255 254 253 253 254 255 255 256 257 259 259 260 260 261 263 264 266 266 266 265 263 262 262 265 268 271 274 276 278 280 282 285 286 289 292 295 297 298 299 301 304 306 307 306 307 307 307
258 258 257 256 255 255 254 255 256 256 256 256 255 254 253 253 253 252 252 252 252 252 253 254 254 254 256 257 258 258 258 258 258 257 256 254 252 251 250 249 248 249 250 251 252 254 256 257 258 258 258 260 262 263 263 261 258 257 257 258 261 265 270 272 275 278 280 282 283 286 289 292 296 298 300 302 304 305 307 309 309 309 310 310 310
255 254 253 253 253 252 252 252 253 254 255 254 253 253 252 252 252 251 251 251 251 251 252 253 254 255 255 255 256 256 256 255 254 252 250 247 245 246 246 245 245 246 247 249 251 253 254 255 255 256 257 258 259 258 256 253 251 251 254 258 261 265 268 271 273 277 281 282 284 288 292 296 300 302 304 306 308 310 311 312 313 314 315 315 314
251 250 248 248 248 248 249 250 251 252 252 252 252 252 252 252 251 251 251 250 250 250 251 252 254 255 254 254 254 253 252 250 248 246 243 240 239 241 242 241 241 243 244 246 249 250 251 252 253 254 255 254 252 250 248 246 246 248 252 257 260 263 266 269 273 277 280 282 285 290 295 300 304 307 309 310 312 314 315 316 317 319 320 320 318
245 244 243 241 241 242 244 247 249 250 251 252 252 252 252 252 251 250 250 250 250 250 251 252 253 254 253 252 250 248 246 244 242 240 237 235 235 236 237 236 237 238 241 244 246 247 247 249 250 250 250 247 244 242 240 241 243 246 250 255 259 261 265 268 272 276 280 283 287 293 299 304 309 312 315 317 318 319 319 319 320 323 324 323 322
235 235 234 233 233 236 240 244 247 250 251 252 253 253 252 251 250 249 248 248 248 249 249 250 251 252 251 248 245 242 240 239 236 233 230 228 229 230 230 230 232 235 238 241 242 242 243 244 244 245 243 239 236 234 235 237 241 244 248 252 256 260 263 266 269 275 280 284 289 296 302 307 312 317 320 323 323 323 321 321 324 327 329 327 326
221 222 224 226 228 234 240 245 249 252 253 254 254 254 253 252 251 249 246 246 246 246 246 247 248 249 248 245 241 239 237 233 228 223 220 220 221 223 224 227 230 233 235 236 236 237 239 239 239 238 234 229 227 229 231 234 238 242 247 251 255 259 264 266 269 274 279 282 288 295 302 307 312 317 322 325 326 325 324 326 329 331 333 332 330
207 213 218 222 228 238 246 250 254 256 257 259 259 258 256 253 250 248 245 243 243 242 243 244 245 246 244 240 235 231 227 221 215 213 213 215 218 221 224 226 228 228 228 228 230 233 235 234 231 228 223 221 222 226 229 232 236 241 247 253 257 261 266 268 270 274 278 281 285 292 300 306 311 316 321 325 327 327 328 330 332 334 335 336 335
197 207 216 226 236 245 251 253 256 258 259 261 262 260 255 250 247 244 241 239 238 238 237 236 236 234 231 226 220 215 211 208 207 209 211 213 215 217 219 220 219 220 221 224 228 230 229 225 222 219 217 218 222 226 229 234 238 244 250 256 260 264 268 270 272 275 277 279 283 290 298 304 309 313 319 323 326 328 331 334 336 337 338 340 340
176 193 208 223 235 242 246 249 249 249 251 257 261 258 249 241 235 229 225 223 221 218 216 214 213 212 208 204 200 199 199 200 201 203 204 206 208 210 211 213 215 217 220 224 226 224 220 216 214 215 216 219 224 228 232 237 242 247 253 259 262 265 268 271 274 276 276 276 279 286 294 301 306 311 316 320 323 327 331 335 337 338 340 342 343
121 132 143 155 171 190 200 198 189 183 182 179 163 156 165 171 174 176 178 179 179 179 180 183 185 186 185 185 185 187 189 191 194 197 200 203 205 206 208 210 213 215 218 220 219 216 213 211 212 215 219 222 227 232 237 241 244 249 255 260 263 265 268 272 274 274 273 273 277 283 290 297 303 308 312 316 320 325 329 334 336 338 339 342 344
97 99 103 102 97 96 104 112 117 120 122 119 114 109 110 115 121 130 139 146 152 157 161 165 167 168 172 178 181 184 185 188 192 197 200 202 203 203 204 206 208 210 212 213 211 209 209 210 214 218 222 226 232 237 241 244 247 251 256 259 262 265 269 271 271 271 270 273 278 283 287 293 299 304 309 313 318 323 328 332 335 337 339 341 343
91 91 93 93 92 94 100 105 108 111 114 116 115 113 112 113 115 119 126 134 141 147 151 155 160 166 173 180 184 187 188 189 191 194 195 195 197 198 200 202 203 205 206 207 206 206 207 211 215 220 225 230 236 240 243 246 250 253 255 258 261 265 268 268 266 267 270 274 279 283 286 290 295 300 306 310 315 321 325 329 332 336 338 341 343
89 88 89 89 91 93 95 99 103 107 111 114 115 114 113 114 115 117 123 130 137 143 146 149 156 165 173 177 180 183 185 186 187 188 188 189 191 193 194 196 199 201 203 203 204 205 208 212 217 222 228 234 240 244 246 249 251 253 256 259 263 266 267 266 264 265 270 275 280 283 286 289 292 297 303 308 312 315 319 324 329 333 336 339 341
85 85 87 89 90 90 90 92 97 102 109 114 116 115 114 114 115 118 122 127 134 140 145 148 152 157 162 167 171 174 177 178 180 181 182 184 186 188 190 193 196 197 199 200 201 203 207 211 217 224 231 238 243 247 249 251 254 257 259 262 265 268 267 265 265 267 270 275 280 283 285 287 290 295 301 306 309 311 315 320 325 329 332 335 339
80 81 84 88 89 90 89 90 93 100 107 114 117 118 115 111 111 114 119 123 130 139 146 148 148 148 151 156 160 164 168 171 173 176 178 180 182 184 186 189 191 192 194 195 198 201 207 213 221 230 236 241 246 250 253 256 260 263 265 266 268 268 267 266 267 268 271 275 278 280 283 285 288 293 298 303 306 309 311 315 319 322 326 330 334